Location: Ffald-y-Brenin
(52.0833°N, 4.0000°W)
Time: 05:11:25
(UTC+00:00)

CZ-4B R/B - Pass Details

Date: 18 February 2020
Orbit: 808 x 882 km, 99.1° (Epoch: 29 March)

Event Time Altitude Azimuth Distance (km) Brightness Sun altitude
Rises 06:33:03 0° 15° (NNE) 3,378 6.4 -8.8°
Reaches altitude 10° 06:35:25 10° 14° (NNE) 2,431 5.7 -8.5°
Maximum altitude 06:40:47 76° 289° (WNW) 843 3.1 -7.6°
Drops below altitude 10° 06:46:03 10° 205° (SSW) 2,390 5.4 -6.8°
Sets 06:48:22 0° 204° (SSW) 3,316 6.2 -6.5°
